[[{"header":{"parameterUnit":"m.s-1","parameterCategory":1,"la1":30.2991,"la2":30.254,"lo1":-89.0895,"lo2":-89.0444,"dy":0.0017,"dx":0.0017,"nx":28,"ny":28,"refTime":"2024-05-02T21:00:00:Z","depth":0,"parameterNumber":2,"parameterNumberName":"U-component_of_WINDS"},"data":[0,0,0,0,0,0,0,0,0,0,0,0,0,0,0,0,0,0,0,0,0,0,0,0,0,0,0,0,0,0,0,0,0,0,0,0,0,0,0,0,0,0,0,0,0,0,0,0,0,0,0,0,0,0,0,0,0,0,-2.3476,-2.3477,0,-2.355,-2.3551,-2.3552,-2.3555,-2.3554,-2.3553,-2.3552,-2.363,-2.3633,-2.3635,0,0,0,0,0,0,0,0,0,0,0,0,0,-2.3338,-2.334,-2.3476,-2.3477,-2.3478,-2.355,-2.3551,-2.3552,-2.3555,-2.3554,-2.3553,-2.3552,-2.3629,-2.3632,-2.3636,0,0,0,0,0,0,0,0,0,0,0,0,0,-2.3404,-2.3341,-2.3476,-2.3488,-2.3489,-2.355,-2.3551,-2.3553,-2.3555,-2.3554,-2.3552,-2.3551,-2.3628,-2.3632,-2.3636,-2.369,0,0,-2.3649,-2.3651,0,0,0,0,0,0,0,0,-2.34,-2.3409,-2.3485,-2.3487,-2.3489,-2.3542,-2.3531,-2.3599,-2.3555,-2.353,-2.3552,-2.3551,-2.3602,-2.3608,-2.3625,-2.3694,-2.3697,-2.365,-2.3652,-2.3654,-2.3656,0,0,0,0,0,0,0,-2.3395,-2.3405,-2.3505,-2.3486,-2.3489,-2.349,-2.3498,-2.3544,-2.3573,-2.3532,-2.3533,-2.3541,-2.3603,-2.3621,-2.3627,-2.3698,-2.365,-2.3654,-2.3656,-2.3658,-2.3816,-2.3818,0,0,0,0,0,0,-2.3388,-2.3402,-2.3503,-2.3507,-2.344,-2.3494,-2.3502,-2.3526,-2.3572,-2.3578,-2.3543,-2.3541,-2.3614,-2.3622,-2.363,-2.3696,-2.3654,-2.3658,-2.3661,-2.3815,-2.3817,-2.3818,0,0,0,0,0,0,-2.3385,-2.3397,-2.35,-2.3455,-2.3468,-2.3497,-2.3524,-2.3528,-2.3547,-2.358,-2.3585,-2.3556,-2.3613,-2.3623,-2.3675,-2.3699,-2.366,-2.3664,-2.3813,-2.3815,-2.3817,-2.3829,0,0,0,0,0,0,-2.3381,-2.3396,-2.3416,-2.3455,-2.347,-2.3543,-2.3526,-2.3531,-2.3554,-2.3553,-2.3594,-2.3599,-2.3613,-2.3669,-2.368,-2.3704,-2.3668,-2.3811,-2.3814,-2.3817,-2.3827,-2.3832,-2.3836,0,0,0,0,0,-2.3376,-2.3417,-2.3417,-2.3429,-2.3496,-2.3545,-2.3554,-2.3568,-2.3556,-2.3577,-2.3598,-2.3598,-2.3695,-2.3674,-2.3686,-2.3713,-2.3809,-2.3813,-2.3816,-2.3825,-2.3831,-2.3836,0,0,0,0,0,0,-2.338,-2.3422,-2.3423,-2.3477,-2.3507,-2.3545,-2.3572,-2.3574,-2.3609,-2.3607,-2.3624,-2.3633,-2.3685,-2.3704,-2.368,-2.3768,-2.3751,-2.3757,-2.3753,-2.3759,-2.3763,-2.3757,-2.3671,0,0,0,0,0,-2.3387,-2.3422,-2.3457,-2.3502,-2.3517,-2.3542,-2.3564,-2.3573,-2.3605,-2.3618,-2.3643,-2.3675,-2.3713,-2.3737,-2.3774,-2.383,-2.384,-2.3855,-2.3859,-2.3863,-2.3868,-2.39,-2.3907,-2.383,-2.383,-2.383,0,0,-2.3401,-2.3429,-2.345,-2.3503,-2.3528,-2.3565,-2.3552,-2.3592,-2.362,-2.3624,-2.3674,-2.3694,-2.3731,-2.3786,-2.3811,-2.3803,-2.3891,-2.3867,-2.387,-2.3873,-2.3905,-2.3912,-2.3918,-2.3832,-2.3832,-2.3832,0,0,-2.3447,-2.3471,-2.3511,-2.3536,-2.3574,-2.359,-2.36,-2.3638,-2.3651,-2.3702,-2.3706,-2.374,-2.3805,-2.3831,-2.3853,-2.3911,-2.3912,-2.3922,-2.3946,-2.3977,-2.3983,-2.3988,-2.4009,-2.4017,-2.3927,-2.3927,-2.3927,0,-2.3461,-2.3516,-2.3532,-2.3571,-2.3595,-2.36,-2.3642,-2.3665,-2.3713,-2.3729,-2.372,-2.3802,-2.3827,-2.3888,-2.3903,-2.392,-2.3932,-2.3917,-2.3981,-2.3986,-2.3992,-2.4012,-2.402,-2.3928,-2.3928,-2.3928,-2.3928,0,-2.3531,-2.357,-2.3598,-2.3643,-2.367,-2.3711,-2.3733,-2.3759,-2.3766,-2.3784,-2.3836,-2.3867,-2.391,-2.3925,-2.3933,-2.3988,-2.3982,-2.3977,-2.396,-2.4,-2.4019,-2.4027,-2.393,-2.3929,-2.3929,-2.3929,0,0,-2.358,-2.3634,-2.3644,-2.3666,-2.3708,-2.3739,-2.378,-2.3822,-2.3844,-2.3877,-2.3912,-2.3968,-2.3963,-2.3988,-2.3999,-2.4026,-2.4071,-2.4018,-2.4019,-2.4026,-2.4135,-2.4138,-2.4147,-2.4072,-2.4074,-2.4075,-2.4132,0,-2.363,-2.3702,-2.3718,-2.3781,-2.3817,-2.3824,-2.386,-2.3891,-2.3909,-2.3943,-2.3964,-2.4003,-2.3994,-2.4009,-2.4037,-2.4059,-2.4093,-2.4056,-2.4106,-2.4107,-2.4096,-2.4157,-2.416,-2.4212,-2.4139,-2.414,-2.4141,0,-2.3698,-2.3733,-2.3799,-2.3838,-2.3853,-2.3885,-2.3926,-2.3958,-2.3994,-2.4005,-2.4034,-2.4042,-2.4086,-2.4068,-2.413,-2.4104,-2.4126,-2.4141,-2.4143,-2.4148,-2.4126,-2.4163,-2.4229,-2.4236,-2.4153,-2.4152,-2.4152,0,-2.3727,-2.379,-2.3838,-2.3856,-2.3902,-2.3925,-2.3945,-2.3979,-2.4004,-2.404,-2.4057,-2.4097,-2.412,-2.4152,-2.4171,-2.4156,-2.4231,-2.4215,-2.4243,-2.4242,-2.4257,-2.4256,-2.4327,-2.4272,-2.4272,-2.4272,-2.4272,0,-2.3781,-2.3821,-2.3852,-2.3881,-2.3927,-2.3946,-2.3991,-2.4011,-2.4042,-2.4076,-2.4085,-2.4118,-2.4142,-2.4178,-2.4193,-2.4242,-2.4253,-2.4264,-2.4267,-2.4262,-2.4261,-2.4276,-2.4273,-2.4274,-2.4274,-2.4273,-2.4273,0,-2.382,-2.3842,-2.3895,-2.3935,-2.3946,-2.3978,-2.4012,-2.4042,-2.4061,-2.4105,-2.4116,-2.4146,-2.4189,-2.4212,-2.4266,-2.4277,-2.4332,-2.4333,-2.4319,-2.4321,-2.4347,-2.4344,-2.4431,-2.4443,-2.438,-2.4381,-2.4381,0,-2.3852,-2.3884,-2.3927,-2.3951,-2.3971,-2.4009,-2.4035,-2.4055,-2.4081,-2.4125,-2.4149,-2.4193,-2.4228,-2.4297,-2.4324,-2.4366,-2.4368,-2.4396,-2.4375,-2.4369,-2.4369,-2.4366,-2.437,-2.4399,-2.44,-2.44,-2.4401,0,-2.3908,-2.3918,-2.3954,-2.3994,-2.4024,-2.4057,-2.4089,-2.4108,-2.4134,-2.4164,-2.4207,-2.4235,-2.429,-2.4334,-2.4378,-2.44,-2.4405,-2.4407,-2.4416,-2.4411,-2.4402,-2.4407,-2.4329,-2.4405,-2.4404,-2.4404,-2.4404,-2.4404,-2.3945,-2.3973,-2.4009,-2.4049,-2.4075,-2.4106,-2.4136,-2.4159,-2.4195,-2.4242,-2.4252,-2.4298,-2.4335,-2.4394,-2.4418,-2.4455,-2.445,-2.4462,-2.4465,-2.4468,-2.4469,-2.4396,-2.4463,-2.4463,-2.4463,-2.4463,-2.4463,0,-2.4001,-2.4024,-2.4061,-2.4106,-2.4138,-2.414,-2.4177,-2.4203,-2.4244,-2.4277,-2.4312,-2.4363,-2.4406,-2.4437,-2.4481,-2.4505,-2.4508,-2.4516,-2.4514,-2.4519,-2.4472,-2.446,-2.4512,-2.4512,-2.4512,-2.4512,-2.4512,-2.4512,-2.4034,-2.4082,-2.4096,-2.4158,-2.4182,-2.4227,-2.4248,-2.4276,-2.4303,-2.4359,-2.4394,-2.4414,-2.4447,-2.4494,-2.4533,-2.4541,-2.4557,-2.4564,-2.4572,-2.4527,-2.4522,-2.4517,-2.4506,-2.4567,-2.4567,-2.4617,-2.4617,-2.4617]},{"header":{"parameterUnit":"m.s-1","parameterCategory":1,"la1":30.2991,"la2":30.254,"lo1":-89.0895,"lo2":-89.0444,"dy":0.0017,"dx":0.0017,"nx":28,"ny":28,"refTime":"2024-05-02T21:00:00:Z","depth":0,"parameterNumber":3,"parameterNumberName":"V-component_of_WINDS"},"data":[0,0,0,0,0,0,0,0,0,0,0,0,0,0,0,0,0,0,0,0,0,0,0,0,0,0,0,0,0,0,0,0,0,0,0,0,0,0,0,0,0,0,0,0,0,0,0,0,0,0,0,0,0,0,0,0,0,0,1.6415,1.6415,0,1.6386,1.6386,1.6386,1.6358,1.6357,1.6357,1.6356,1.6324,1.6324,1.6323,0,0,0,0,0,0,0,0,0,0,0,0,0,1.6444,1.6444,1.6415,1.6415,1.6414,1.6386,1.6386,1.6386,1.6358,1.6357,1.6357,1.6356,1.6325,1.6324,1.6323,0,0,0,0,0,0,0,0,0,0,0,0,0,1.6425,1.6444,1.6415,1.6397,1.6395,1.6387,1.6386,1.6386,1.6358,1.6357,1.6357,1.6356,1.6325,1.6324,1.6323,1.6329,0,0,1.6321,1.6321,0,0,0,0,0,0,0,0,1.6426,1.6424,1.64,1.6398,1.6396,1.6375,1.6384,1.6367,1.6358,1.6372,1.6356,1.6356,1.6342,1.6339,1.6335,1.6328,1.6326,1.6321,1.632,1.632,1.632,0,0,0,0,0,0,0,1.6427,1.6425,1.6404,1.64,1.6397,1.639,1.6387,1.6381,1.636,1.6371,1.6369,1.6366,1.634,1.6336,1.6334,1.6326,1.6321,1.632,1.632,1.6319,1.6323,1.6323,0,0,0,0,0,0,1.6432,1.6426,1.6405,1.6403,1.641,1.639,1.6386,1.6382,1.636,1.6356,1.6366,1.6364,1.6337,1.6335,1.6333,1.6339,1.632,1.6319,1.6319,1.6322,1.6323,1.6323,0,0,0,0,0,0,1.6433,1.643,1.6406,1.6414,1.641,1.639,1.6386,1.6382,1.6378,1.6357,1.6353,1.6366,1.6337,1.6334,1.6331,1.6337,1.6319,1.6318,1.6321,1.6322,1.6323,1.635,0,0,0,0,0,0,1.6434,1.6431,1.6433,1.6414,1.641,1.6405,1.6386,1.6382,1.6377,1.6374,1.6355,1.6351,1.6336,1.6332,1.633,1.6336,1.6318,1.6321,1.6322,1.6323,1.6348,1.6352,1.6354,0,0,0,0,0,1.6435,1.6441,1.6433,1.6431,1.6413,1.6405,1.6402,1.6386,1.6377,1.6379,1.6366,1.6352,1.6337,1.6332,1.6329,1.6335,1.632,1.6321,1.6323,1.6347,1.6351,1.6354,0,0,0,0,0,0,1.646,1.6438,1.6429,1.643,1.642,1.64,1.6402,1.6391,1.6382,1.638,1.6359,1.6355,1.6354,1.6344,1.6339,1.634,1.6327,1.6327,1.6346,1.635,1.6353,1.6355,1.6317,0,0,0,0,0,1.6466,1.6462,1.6443,1.6445,1.6441,1.6423,1.6419,1.6407,1.6395,1.639,1.6377,1.6365,1.6358,1.6353,1.6345,1.6347,1.6342,1.635,1.6353,1.6355,1.6356,1.6356,1.6359,1.6327,1.6327,1.6327,0,0,1.6477,1.6465,1.6464,1.645,1.6441,1.6437,1.6419,1.6415,1.6412,1.6389,1.6386,1.6376,1.6361,1.6361,1.636,1.6352,1.6364,1.6357,1.6359,1.6358,1.6358,1.6361,1.6364,1.6328,1.6328,1.6328,0,0,1.6496,1.6487,1.6488,1.648,1.6466,1.6454,1.6455,1.6437,1.643,1.6426,1.6409,1.6405,1.6392,1.6383,1.6377,1.6394,1.638,1.6392,1.6407,1.6408,1.641,1.6412,1.6418,1.6421,1.6393,1.6393,1.6393,0,1.6512,1.6506,1.649,1.6488,1.6482,1.6463,1.6464,1.6456,1.644,1.6437,1.6429,1.6414,1.6403,1.64,1.6405,1.64,1.6399,1.6393,1.6411,1.6413,1.6415,1.642,1.6423,1.6394,1.6394,1.6394,1.6394,0,1.6527,1.6523,1.6525,1.6512,1.6507,1.6506,1.6489,1.6486,1.6475,1.6464,1.646,1.6447,1.6436,1.6434,1.6423,1.643,1.6426,1.6415,1.6402,1.642,1.6425,1.6426,1.6396,1.6396,1.6395,1.6395,0,0,1.656,1.6538,1.6539,1.6533,1.6517,1.6514,1.6512,1.6503,1.6501,1.6491,1.6489,1.6479,1.647,1.6463,1.645,1.6451,1.6465,1.644,1.6439,1.6445,1.6472,1.648,1.6483,1.6457,1.6457,1.6458,1.6473,0,1.6576,1.6573,1.6558,1.6559,1.6556,1.6538,1.6536,1.6526,1.6516,1.6511,1.6499,1.6493,1.6481,1.6477,1.6477,1.6464,1.6471,1.6462,1.6454,1.6454,1.6458,1.6485,1.6493,1.6509,1.6475,1.6475,1.6476,0,1.6594,1.6586,1.6587,1.6572,1.657,1.6569,1.656,1.6556,1.6544,1.6536,1.6529,1.6516,1.6513,1.6501,1.6497,1.6491,1.6487,1.6481,1.6481,1.6479,1.6466,1.6484,1.6513,1.6516,1.6478,1.6478,1.6478,0,1.6618,1.6608,1.6607,1.6603,1.6585,1.6585,1.6578,1.6566,1.6561,1.6553,1.6549,1.654,1.6535,1.6529,1.6513,1.6506,1.651,1.6497,1.6504,1.6504,1.6505,1.6505,1.6534,1.6503,1.6503,1.6503,1.6503,0,1.6637,1.6638,1.6618,1.6617,1.6618,1.6602,1.6603,1.6594,1.6583,1.6581,1.6564,1.6562,1.6542,1.6537,1.6525,1.6523,1.6521,1.6514,1.6511,1.6515,1.6516,1.6512,1.651,1.6504,1.6503,1.6503,1.6503,0,1.6663,1.665,1.6648,1.6632,1.6628,1.663,1.6616,1.6614,1.6604,1.66,1.6599,1.6582,1.6575,1.6559,1.6548,1.654,1.6541,1.6536,1.6546,1.6544,1.6551,1.655,1.6578,1.6581,1.6549,1.6549,1.6549,0,1.6676,1.6677,1.6662,1.6659,1.6653,1.6649,1.6644,1.6628,1.6624,1.6612,1.6612,1.6605,1.6598,1.6588,1.6574,1.6566,1.6559,1.657,1.6558,1.6563,1.6559,1.6559,1.6559,1.6572,1.6572,1.6573,1.6573,0,1.6701,1.6694,1.6689,1.6682,1.6677,1.6671,1.6663,1.6661,1.6643,1.664,1.6634,1.6628,1.6618,1.6611,1.66,1.6592,1.658,1.6577,1.6578,1.6583,1.6588,1.6585,1.6552,1.6576,1.6576,1.6576,1.6576,1.6575,1.6721,1.6721,1.671,1.6705,1.6698,1.6691,1.6689,1.6679,1.6674,1.6665,1.6655,1.665,1.6639,1.6624,1.6617,1.6612,1.6606,1.6607,1.6607,1.6608,1.661,1.659,1.661,1.661,1.661,1.661,1.661,0,1.6744,1.6737,1.6732,1.6722,1.6718,1.6708,1.6699,1.6696,1.6692,1.6683,1.6677,1.667,1.6664,1.665,1.6641,1.664,1.6635,1.6639,1.6638,1.6637,1.6616,1.6616,1.6644,1.6644,1.6644,1.6644,1.6644,1.6644,1.6756,1.6755,1.6748,1.6743,1.6736,1.6731,1.6727,1.6721,1.6714,1.6707,1.6702,1.6693,1.6682,1.6673,1.6666,1.6662,1.666,1.6666,1.666,1.6641,1.6638,1.6635,1.6635,1.6666,1.6666,1.6681,1.6681,1.6681]}]]